SAVONLINNA_(AUT) current weather conditions

sailwx.info

Wind from 060 at 13 knots

Air temperature 4.0° C
Visibility: greater than 5.4 NM
Dewpoint -5.0° C

Last reported at 2017-Apr-29 14:20 UTC.
Time now 2017-Apr-29 15:28 UTC

Location: N 61°57' E 028°57'.
View on Google Maps.

See reports from other nearby stations

  
Tides and Currents Weather Stations Pressure Air Temp Water Temp Dewpoint Dewpoint Depression Visibility Wind Speed Wind Dir Waves Ship Positions
date/time (UTC)wind fromknots sea level pressurealtimeterstation pressurevisibilityair tempwater tempwave heightnotes
2017-Apr-29 14:50 060 13 gusting 24 1.6 2.0 Light rain.
2017-Apr-29 14:20 060 13 5.4 4.0
2017-Apr-29 13:50 060 11 5.4 4.0
2017-Apr-29 13:20 050 9 5.4 4.0
2017-Apr-29 12:50 050 12 5.4 4.0
2017-Apr-29 12:20 050 12 gusting 22 5.4 4.0
2017-Apr-29 11:50 050 11 5.4 4.0
2017-Apr-29 11:20 040 9 5.4 4.0
2017-Apr-29 10:50 060 8 5.4 4.0
2017-Apr-29 10:20 040 8 5.4 4.0
2017-Apr-29 09:50 060 8 5.4 4.0
2017-Apr-29 09:20 060 12 5.4 4.0
2017-Apr-29 08:50 060 9 5.4 4.0
2017-Apr-29 08:20 070 9 5.4 3.0
2017-Apr-29 07:50 070 12 gusting 21 5.4 3.0
2017-Apr-29 07:20 070 12 5.4 3.0
2017-Apr-29 06:50 070 14 5.4 2.0
2017-Apr-29 06:20 070 13 5.4 2.0
2017-Apr-29 05:50 060 11 5.4 1.0
2017-Apr-29 05:20 060 9 5.4 1.0
2017-Apr-29 04:50 060 9 5.4 1.0
2017-Apr-29 04:20 060 8 5.4-0.0
2017-Apr-29 03:50 060 6 5.4-0.0
2017-Apr-29 03:20 060 7 5.4-0.0
2017-Apr-29 02:50 060 6 5.4-0.0
2017-Apr-29 02:20 070 5 5.4-1.0
2017-Apr-29 01:50 050 4 5.4-1.0
2017-Apr-29 01:20 050 4 5.4-1.0
2017-Apr-29 00:50 050 5 5.4-1.0
2017-Apr-29 00:20 050 5 5.4-1.0
2017-Apr-28 23:50 060 5 5.4-1.0
2017-Apr-28 23:20 060 6 5.4-0.0
2017-Apr-28 22:50 060 5 5.4-0.0
2017-Apr-28 22:20 050 4 5.4-0.0
2017-Apr-28 21:50 070 5 5.4 1.0
2017-Apr-28 21:20 060 6 5.4 1.0
2017-Apr-28 20:50 050 5 5.4 1.0
2017-Apr-28 20:20 040 4 5.4 2.0
2017-Apr-28 19:50 030 4 5.4 2.0
2017-Apr-28 19:20 020 4 5.4 2.0
2017-Apr-28 18:50 020 4 5.4 2.0
2017-Apr-28 18:20 010 4 5.4 2.0
2017-Apr-28 17:50 020 4 5.4 3.0
2017-Apr-28 17:20 030 4 5.4 4.0
2017-Apr-28 16:50 040 4 5.4 4.0
2017-Apr-28 16:20 020 6 5.4 5.0
2017-Apr-28 15:50 020 6 5.4 5.0
2017-Apr-28 15:20 030 4 5.4 5.0
2017-Apr-28 14:50 360 6 5.4 5.0
2017-Apr-28 14:20 010 4 5.4 5.0
2017-Apr-28 13:50 020 5 5.4 6.0
2017-Apr-28 13:20 030 4 5.4 6.0
2017-Apr-28 12:50 340 2 5.4 5.0
2017-Apr-28 12:20 360 4 5.4 6.0
2017-Apr-28 11:50 330 5 5.4 5.0
2017-Apr-28 11:20 340 5 5.4 5.0
2017-Apr-28 10:50 250 6 5.4 6.0
2017-Apr-28 10:20 250 7 5.4 5.0
2017-Apr-28 09:50 5.4 5.0
2017-Apr-28 09:20 240 5 5.4 4.0
2017-Apr-28 08:50 270 6 5.4 4.0
2017-Apr-28 08:20 310 6 5.4 4.0
2017-Apr-28 07:50 250 5 5.4 4.0
2017-Apr-28 07:20 260 5 5.4 3.0
2017-Apr-28 06:50 260 5 5.4 3.0
2017-Apr-28 06:20 240 4 5.4 3.0
2017-Apr-28 05:50 280 2 5.4 2.0
2017-Apr-28 05:20 270 2 5.4 1.0
2017-Apr-28 04:50 230 2 5.4 1.0
2017-Apr-28 04:20 260 0 5.4-0.0
2017-Apr-28 03:50 270 0 5.4-1.0
2017-Apr-28 03:20 290 1 5.4-2.0
2017-Apr-28 02:50 240 0 5.4-2.0 Shallow fog.
2017-Apr-28 02:20 250 0 4.9-3.0
2017-Apr-28 01:50 240 0 5.4-2.0
2017-Apr-28 01:20 260 1 5.4-2.0
2017-Apr-28 00:50 270 0 5.4-1.0
2017-Apr-28 00:20 310 2 5.4-2.0
2017-Apr-27 23:50 300 0 4.3-0.0 Light snow showers.
2017-Apr-27 23:20 280 2 5.4-2.0
2017-Apr-27 22:50 300 0 5.4-1.0
2017-Apr-27 22:20 240 0 5.4-1.0
2017-Apr-27 21:50 210 2 5.4-0.0 Light snow showers.
2017-Apr-27 21:20 220 4 5.4-0.0
2017-Apr-27 20:50 280 2 5.4-1.0
2017-Apr-27 20:20 220 0 5.4-0.0
2017-Apr-27 19:50 230 1 5.4-0.0
2017-Apr-27 19:20 200 1 5.4-0.0
2017-Apr-27 18:50 190 1 5.4 1.0
2017-Apr-27 18:20 180 4 5.4 2.0 Light rain showers.
2017-Apr-27 17:50 200 5 5.4 3.0 Light rain.
2017-Apr-27 17:20 260 1 5.4 4.0
2017-Apr-27 16:50 300 2 5.4 5.0
2017-Apr-27 16:20 300 5 5.4 5.0
2017-Apr-27 15:50 290 6 5.4 6.0
2017-Apr-27 15:20 280 6 5.4 6.0